Location: ??????????
(48.1957°N, 37.6785°E)
Time: 15:23:38
(UTC+00:00)

Daily predictions for brighter satellites

Satellite Brightness Start Highest point End
(mag) Time Altitude Azimuth Time Altitude Azimuth Time Altitude Azimuth
Meteor 1-20 Rocket 4.4 14:02:36 10° N 14:08:24 61° ENE 14:14:11 10° SSE
Cosmos 1656 4.4 14:03:17 10° NNW 14:08:45 61° WSW 14:14:15 10° S
Cosmos 2360 Rocket 4.0 14:08:30 10° N 14:10:26 12° NNE 14:12:21 10° NE
Cosmos 1805 Rocket 4.0 14:06:33 10° N 14:10:39 39° ENE 14:14:44 10° SE
SL-16 R/B 4.5 14:07:34 10° N 14:12:17 23° NW 14:17:00 10° WSW
Cosmos 1340 Rocket 2.9 14:10:51 10° NNW 14:14:57 87° W 14:19:02 10° S
Cosmos 540 Rocket 3.9 14:10:30 10° S 14:15:17 43° ESE 14:20:06 10° NE
Cosmos 1842 Rocket 3.8 14:12:26 10° SSW 14:16:54 80° W 14:21:25 10° N
Cosmos 1092 Rocket 4.1 14:11:43 10° N 14:18:00 58° ENE 14:24:13 10° SSE
CZ-4C R/B 3.5 14:15:48 10° N 14:19:37 71° WNW 14:23:13 10° SSW
ERBS 4.0 14:20:35 10° WNW 14:23:03 20° NNW 14:25:31 10° NE
Lacrosse 5 rocket 2.0 14:20:24 10° NW 14:23:56 34° NNE 14:27:39 10° E
COSMOS 2455 3.3 14:18:32 10° S 14:24:12 45° ESE 14:29:54 10° NE
ATLAS CENTAUR R/B 3.7 14:21:34 10° WNW 14:24:18 16° NNW 14:27:09 10° NNE
USA 308 3.7 14:24:27 10° WNW 14:28:26 37° N 14:32:04 12° ENE
Cosmos 1666 3.8 14:26:22 10° NNE 14:29:21 22° ENE 14:32:19 10° SE
CZ-4C R/B 3.0 14:23:59 10° NW 14:30:53 60° NE 14:39:04 10° ESE
Cosmos 2322 Rocket 3.5 14:28:26 10° N 14:32:32 20° NE 14:36:28 11° E
Cosmos 1697 Rocket 2.9 14:27:09 10° NNW 14:32:46 77° WSW 14:38:22 10° SSE
Spot 1 4.4 14:28:18 10° NNE 14:33:05 86° ESE 14:38:05 10° SSW
Meteor 2-21 4.5 14:30:48 10° N 14:36:50 60° ENE 14:42:47 10° SSE
Cosmos 1980 Rocket 2.2 14:32:21 10° NNW 14:38:01 66° ENE 14:43:37 10° SE
Cosmos 468 Rocket 4.1 14:33:23 10° SSW 14:38:33 78° WNW 14:43:48 10° NNE
NOAA 12 4.3 14:35:01 10° S 14:40:20 78° WSW 14:45:41 10° NNW
Cosmos 1627 Rocket 4.4 14:34:44 10° N 14:40:55 71° ENE 14:47:01 10° SSE
PSLV R/B 4.0 14:39:55 10° SE 14:43:26 43° ENE 14:47:00 10° N
NOSS 2-2 (C) 4.3 14:38:54 10° NW 14:44:00 87° NE 14:51:13 10° SE
Cosmos 2369 3.7 14:38:51 10° NNW 14:44:38 89° NE 14:50:22 10° SSE
Cosmos 2279 Rocket 4.4 14:39:21 10° SSE 14:45:03 39° E 14:50:45 10° NNE
Cosmos 1898 Rocket 4.2 14:40:14 10° NNW 14:45:23 58° WSW 14:50:28 10° S
Cosmos 2034 Rocket 4.3 14:39:33 10° SSW 14:45:40 69° W 14:51:51 10° N
FengYun 1-2 T 4.4 14:42:04 10° SSE 14:47:40 82° WSW 14:53:14 10° NNW
COSMO-SKYMED 1 3.8 14:45:28 14° NE 14:48:00 22° E 14:51:24 10° SE
CORIOLIS 4.1 14:44:41 10° SSE 14:50:05 79° ENE 14:55:32 10° NNW
USA 267 3.3 14:44:43 13° ENE 14:50:42 77° SE 14:57:15 10° SW
Cosmos 1933 3.4 14:47:57 10° SSW 14:52:00 81° W 14:56:03 10° N
Cosmos 1818 3.8 14:46:42 10° NNW 14:52:01 47° NE 14:57:17 10° ESE
SL-16 R/B 3.0 14:47:04 10° NNW 14:52:02 30° NE 14:56:59 10° ESE
Cosmos 1633 Rocket 3.5 14:48:16 10° N 14:52:24 39° ENE 14:56:31 10° SE
USA 305 3.5 14:50:07 10° WNW 14:54:09 40° N 14:56:38 20° ENE
CZ-4B R/B 4.0 14:50:35 10° S 14:54:26 46° W 14:58:08 10° NNW
Cosmos 2082 Rocket 2.3 14:50:20 10° SSW 14:55:55 62° ESE 15:01:09 12° NE
Cosmos 1812 3.1 14:52:45 10° SSE 14:56:23 42° E 14:59:47 12° NNE
Meteor 2-14 Rocket 4.4 14:52:01 10° N 14:58:10 86° E 15:04:14 10° S
YAOGAN 1 4.3 14:59:46 15° NE 14:59:46 15° NE 15:01:11 10° NNE
AQUARIUS 4.1 14:53:49 10° SSE 14:58:19 90° NNW 15:02:50 10° NNW
Cosmos 1151 Rocket 3.3 14:55:41 10° SSE 14:59:48 44° E 15:03:57 10° NNE
Meteor 1-14 Rocket 4.3 14:55:25 10° N 15:01:14 64° ENE 15:07:07 10° SSE
SMAP 3.3 14:57:52 10° S 15:02:31 72° WSW 15:07:11 10° NNW
MOS 1-B 4.3 14:58:45 10° SSE 15:04:28 67° ENE 15:10:13 10° N
Cosmos 1634 Rocket 4.0 14:58:09 10° S 15:04:28 83° E 15:10:50 10° N
Cosmos 2026 Rocket 4.1 14:59:34 10° N 15:05:44 80° W 15:11:47 10° S
ARGOS 3.4 15:01:01 10° SE 15:06:05 43° ENE 15:11:10 10° N
Cosmos 2333 Rocket 3.9 15:03:21 10° N 15:06:36 15° NNE 15:07:03 15° NE
MOS 1-B Rocket 4.2 15:01:44 10° NNE 15:07:36 55° ESE 15:14:15 10° S
Cosmos 2278 3.6 15:02:12 10° NNW 15:07:57 80° ENE 15:13:39 10° SSE
CZ-4B DEB 4.2 15:03:27 10° SSE 15:08:58 86° WSW 15:14:29 10° NNW
GEOS 3 Rocket 4.4 15:08:21 22° ENE 15:10:41 31° NNE 15:15:12 10° NNW
Landsat 5 4.4 15:12:04 25° E 15:12:04 25° E 15:15:15 10° SSE
Cosmos 2208 Rocket 4.4 15:07:57 10° S 15:13:05 46° ESE 15:16:36 20° NE
Cosmos 1833 Rocket 3.4 15:08:25 10° SW 15:13:54 52° NW 15:19:24 10° NNE
Cosmos 2150 Rocket 4.3 15:11:06 10° NNW 15:16:02 43° ENE 15:21:00 10° SE
Cosmos 44 Rocket 3.2 15:11:13 10° NNW 15:16:09 63° NE 15:20:34 12° SE
Cosmos 841 Rocket 3.6 15:11:31 10° SSW 15:16:41 78° WNW 15:21:40 11° NNE
ATLAS 2AS CENTAUR R/B 4.2 15:13:36 10° NW 15:19:36 24° N 15:23:11 17° NE
Cosmos 1666 Rocket 3.5 15:15:36 10° N 15:20:04 89° E 15:24:28 10° S
Okean O Rocket 1.8 15:15:50 10° SE 15:20:08 50° ENE 15:24:27 10° N
H-2A R/B 1.9 15:15:25 10° SSE 15:20:34 87° ENE 15:25:37 10° NNW
COSMOS 2406 3.8 15:17:00 10° SW 15:22:39 57° WNW 15:28:06 11° NNE
Cosmos 1328 Rocket 3.6 15:18:55 10° S 15:23:15 56° E 15:26:18 19° NNE
Cosmos 1470 Rocket 3.7 15:19:07 10° N 15:23:28 48° ENE 15:27:47 10° SSE
Cosmos 2219 Rocket 3.9 15:20:19 10° N 15:23:03 15° NNE 15:23:03 15° NNE
Meteor 2-8 Rocket 4.5 15:17:52 10° S 15:23:51 57° E 15:29:53 10° NNE
Meteor 2-21 Rocket 4.5 15:17:46 10° N 15:23:55 83° W 15:29:58 10° S
USA 234 3.5 15:18:30 10° SE 15:25:02 73° SW 15:31:35 10° WNW
CZ-2C R/B 2.6 15:21:28 12° NNE 15:26:10 55° E 15:31:13 10° S
USA 306 3.3 15:22:25 10° WNW 15:26:32 46° NNE 15:27:35 38° ENE
Cosmos 1125 Rocket 3.6 15:23:27 10° NNW 15:28:34 50° ENE 15:33:30 11° SE
Meteor 1-27 Rocket 4.4 15:27:18 10° SSE 15:31:41 30° E 15:31:41 30° E
ISS -1.9 15:29:50 10° W 15:32:51 30° SW 15:35:18 13° SSE
Cosmos 1655 Rocket 4.0 15:27:40 10° N 15:34:01 60° ENE 15:40:17 10° SSE
SKYMED 2 3.5 15:34:05 27° NNE 15:36:19 65° E 15:40:38 10° S
Cosmos 2180 Rocket 4.4 15:31:44 10° S 15:38:02 74° E 15:44:18 10° NNE
Cosmos 1900 4.2 15:33:17 10° SSW 15:38:07 68° ESE 15:39:48 40° NE
CZ-4B R/B 3.1 15:32:53 10° SSE 15:38:18 89° WSW 15:43:40 10° NNW
Meteor 2-6 Rocket 4.1 15:35:05 10° S 15:40:49 77° E 15:46:15 11° NNE
Cosmos 1782 4.4 15:37:44 10° SW 15:41:25 35° WNW 15:45:06 10° N
CZ-2D R/B 4.4 15:38:59 10° S 15:42:39 44° W 15:46:20 10° NNW
SJ-11-01 4.2 15:41:03 10° SSE 15:45:48 89° E 15:50:34 10° NNW
APEX 4.4 15:42:33 10° S 15:44:45 27° SSE 15:44:45 27° SSE
USA 307 3.1 15:42:01 10° WNW 15:46:11 52° NNE 15:46:23 51° NNE
Cosmos 2237 4.4 15:46:42 10° NNW 15:52:15 49° NE 15:52:53 46° ENE
deb Chang Zheng 4 3.9 15:49:09 10° S 15:53:25 67° WSW 15:57:44 10° NNW
Cosmos 2360 Rocket 2.7 15:50:48 10° NNW 15:55:33 39° NE 15:55:33 39° NE
Lacrosse 5 rocket 1.6 15:59:20 10° WNW 16:03:15 62° SW 16:03:35 59° SSW
ATLAS CENTAUR R/B 4.1 16:04:25 10° N 16:04:54 10° N 16:04:54 10° N
Cosmos 1515 Rocket 3.5 16:03:21 10° S 16:07:37 82° S 16:07:37 82° S
USA 308 3.3 16:04:36 10° WNW 16:08:06 52° NNW 16:08:06 52° NNW
Meteor 1-10 Rocket 4.2 16:04:17 10° SSW 16:10:03 85° W 16:13:43 23° N
Meteor 1-11 Rocket 3.6 16:04:27 10° NNW 16:10:07 89° W 16:15:53 10° S
COSMOS 2455 3.8 16:04:30 10° WSW 16:10:12 42° NW 16:13:30 23° NNE
COSMOS 2428 4.5 16:08:01 10° N 16:10:05 18° N 16:10:05 18° N
Cosmos 2322 Rocket 2.0 16:11:45 10° NNW 16:17:30 82° ENE 16:18:22 65° SE
CZ-4C R/B 4.0 16:12:37 10° NW 16:19:33 45° WSW 16:27:29 10° S
Cosmos 921 Rocket 3.5 16:17:13 10° SSW 16:21:05 57° W 16:21:05 57° W
SL-08 RB Rocket 4.2 16:16:58 10° S 16:21:33 60° W 16:26:07 10° NNW
COSMO-SKYMED 1 3.7 16:22:41 29° NNW 16:24:20 42° WNW 16:28:25 10° SW
Meteor 2-15 Rocket 4.5 16:19:20 10° SSW 16:25:29 79° W 16:29:58 20° N
ATLAS CENTAUR R/B 3.4 16:22:54 10° W 16:28:48 32° NNW 16:28:48 32° NNW
USA 267 3.7 16:32:04 44° NNE 16:33:33 52° NNW 16:39:50 10° W
USA 305 4.3 16:30:05 10° WNW 16:32:38 36° WNW 16:32:38 36° WNW
SL-16 R/B 2.7 16:30:56 10° NW 16:36:30 57° WSW 16:39:03 31° S
Cosmos 2082 Rocket 3.9 16:35:35 10° WSW 16:40:25 28° NW 16:43:01 20° N
CZ-2C R/B 4.2 16:40:07 10° SSW 16:40:16 10° SSW 16:40:16 10° SSW
GEOS 3 Rocket 4.1 16:49:28 56° WNW 16:49:28 56° WNW 16:53:37 10° NW
Cosmos 2333 Rocket 3.8 16:46:34 10° NNW 16:49:04 26° N 16:49:04 26° N
Okean O Rocket 4.2 16:53:29 10° SW 16:56:45 20° W 17:00:03 10° NW
Cosmos 2219 Rocket 4.2 17:03:11 10° NNW 17:04:47 19° NNW 17:04:47 19° NNW
NOSS 3-4 (A) 4.5 17:02:59 10° NW 17:07:33 43° NNW 17:07:33 43° NNW
NOSS 3-4 (C) 4.5 17:03:05 10° NW 17:07:38 43° NNW 17:07:38 43° NNW
ATLAS 2AS CENTAUR R/B 4.0 17:05:57 10° NW 17:10:37 31° N 17:10:37 31° N
Cosmos 2360 Rocket 4.2 17:34:54 10° NW 17:37:21 24° NW 17:37:21 24° NW
